User: anonymous   Login
Location: Unspecified
(0.0000°N, 0.0000°E)
Time: 15:22:56
(UTC+01:00)
Language:

ATLAS 3B CENTAUR R/B - Orbit

View from above orbital plane
View from above orbital plane
View from above satellite
View from above satellite

Ground track
Ground track

The orbit data is extracted from the following two-line orbital elements,

1 28118U 03057B   14303.05606205  .00101616  00000-0  24223-2 0  8562
2 28118 028.1377 216.4309 3798803 183.2615 328.5697 07.88995266206131
Epoch (UTC): 30 October 2014 01:20:43
Eccentricity: 0.3798803
inclination: 28.1377°
perigee height: 231 km
apogee height: 8329 km
right ascension of ascending node: 216.4309°
argument of perigee: 183.2615°
revolutions per day: 7.88995266
mean anomaly at epoch: 328.5697°
orbit number at epoch: 20613

The dashed part of the orbit path shows where the satellite is in the earth's shadow,  

DLR